This is the latest recevied weather packets stored in our database for station/object OE6PWE-13. If no packets are shown the sender has not sent any weather packets the latest 10 day(s).
| Time | Temp. | Humidity | Pressure | Rain* | Wind** | Luminosity | Snow |
|---|---|---|---|---|---|---|---|
| 1788401712 | 15.56° C | 99% | 1020 hPa | 0 mm | - | - | - |
| 1788399912 | 16.67° C | 99% | 1020 hPa | 0 mm | - | - | - |
| 1788379212 | 17.78° C | 99% | 1020 hPa | 0 mm | - | - | - |
| 1788375612 | 18.89° C | 98% | 1020 hPa | 0 mm | - | - | - |
| 1788374712 | 18.89° C | 97% | 1019 hPa | 0 mm | - | - | - |
| 1788373812 | 19.44° C | 95% | 1019 hPa | 0 mm | - | - | - |
| 1788372912 | 20° C | 94% | 1019 hPa | 0 mm | - | - | - |
| 1788372012 | 20.56° C | 92% | 1019 hPa | 0 mm | - | - | - |
| 1788371111 | 21.11° C | 89% | 1018 hPa | 0 mm | - | - | - |
| 1788370211 | 22.22° C | 86% | 1018 hPa | 0 mm | - | - | - |
| 1788369312 | 23.33° C | 83% | 1018 hPa | 0 mm | - | - | - |
| 1788366612 | 22.78° C | 84% | 1018 hPa | 0 mm | - | - | - |
| 1788364812 | 22.22° C | 86% | 1018 hPa | 0 mm | - | - | - |
| 1788363911 | 22.78° C | 80% | 1018 hPa | 0 mm | - | - | - |
| 1788363011 | 23.33° C | 77% | 1018 hPa | 0 mm | - | - | - |
| 1788362112 | 24.44° C | 71% | 1018 hPa | 0 mm | - | - | - |
| 1788360312 | 26.11° C | 63% | 1018 hPa | 0 mm | - | - | - |
| 1788358512 | 27.78° C | 57% | 1017 hPa | 0 mm | - | - | - |
| 1788357612 | 28.33° C | 57% | 1017 hPa | 0 mm | - | - | - |
| 1788356712 | 27.78° C | 54% | 1018 hPa | 0 mm | - | - | - |
| 1788355811 | 28.33° C | 56% | 1018 hPa | 0 mm | - | - | - |
| 1788354912 | 27.22° C | 55% | 1018 hPa | 0 mm | - | - | - |
| 1788354012 | 27.78° C | 56% | 1018 hPa | 0 mm | - | - | - |
| 1788353112 | 27.22° C | 53% | 1018 hPa | 0 mm | - | - | - |
| 1788352211 | 26.11° C | 58% | 1019 hPa | 0 mm | - | - | - |
* Rain latest hour (hover to see other rain measurements)
** Current wind speed in m/s (hover to see current wind gust speed)